Olympia, Washington, United States (98501)
Lat: 47.04N, Lon: 122.9W
Wx Zone: WAZ504
Local Info
Past Weather Observations for Today

NOTE: This archive is for the closest National Weather Service station to Olympia. Information may differ from the station used for current weather conditions.

Click here for Long-term Archive

Time Weather Temperature Dewpoint Humidity Pressure Winds Precip Visibility
12:54
Clear
52°F / 11°C 43°F / 6°C 72% 30.42 in
(1030 mb)
Variable 6.9 mph
(Variable 11 kph)
- 10SM
11:54
Clear
48°F / 9°C 43°F / 6°C 82% 30.45 in
(1031 mb)
NNE 4.6 mph
(NNE 7 kph)
- 10SM
11:24
Partly Cloudy
43°F / 6°C 41°F / 5°C 93% 30.45 in
(1031 mb)
NE 4.6 mph
(NE 7 kph)
- 10SM
11:06
Overcast
Fog And Mist
43°F / 6°C 41°F / 5°C 93% 30.48 in
(1032 mb)
NNE 5.8 mph
(NNE 9 kph)
- 6SM
10:54
Mostly Cloudy
Fog And Mist
43°F / 6°C 41°F / 5°C 93% 30.48 in
(1032 mb)
NE 4.6 mph
(NE 7 kph)
- 3SM
10:52
Mostly Cloudy
Fog And Mist
43°F / 6°C 41°F / 5°C 93% 30.48 in
(1032 mb)
NNE 5.8 mph
(NNE 9 kph)
- 3SM
09:54
Obscured
Fog
43°F / 6°C 41°F / 5°C 93% 30.48 in
(1032 mb)
NE 4.6 mph
(NE 7 kph)
- 1/2SM
09:47
Obscured
Fog
43°F / 6°C 39°F / 4°C 87% 30.48 in
(1032 mb)
N 4.6 mph
(N 7 kph)
- 1/2SM
08:54
Obscured
Fog
36°F / 2°C 34°F / 1°C 93% 30.48 in
(1032 mb)
Calm - 1/4SM
08:44
Obscured
Fog
36°F / 2°C 34°F / 1°C 93% 30.48 in
(1032 mb)
Calm - 1/4SM
08:23
Overcast
Fog And Mist
34°F / 1°C 32°F / 0°C 93% 30.48 in
(1032 mb)
Calm - 1SM
07:54
Mostly Cloudy
Fog And Mist
30°F / -1°C 30°F / -1°C 100% 30.45 in
(1031 mb)
Calm - 4SM
07:50
Mostly Cloudy
Fog And Mist
30°F / -1°C 30°F / -1°C 100% 30.48 in
(1032 mb)
Calm - 1SM
07:34
Mostly Cloudy
Fog And Mist
32°F / 0°C 30°F / -1°C 93% 30.45 in
(1031 mb)
Calm - 3/4SM
07:32
Mostly Cloudy
Fog And Mist
32°F / 0°C 30°F / -1°C 93% 30.45 in
(1031 mb)
Calm - 1 1/2SM
07:26
Mostly Cloudy
30°F / -1°C 30°F / -1°C 100% 30.45 in
(1031 mb)
Calm - 8SM
06:54
Partly Cloudy
Fog And Mist
32°F / 0°C 30°F / -1°C 93% 30.45 in
(1031 mb)
Calm - 4SM
06:35
Partly Cloudy
30°F / -1°C 28°F / -2°C 93% 30.45 in
(1031 mb)
Calm - 9SM
05:54
Clear
30°F / -1°C 28°F / -2°C 93% 30.48 in
(1032 mb)
Calm - 9SM
05:02
Partly Cloudy
32°F / 0°C 30°F / -1°C 93% 30.45 in
(1031 mb)
Calm - 7SM
04:54
Clear
32°F / 0°C 30°F / -1°C 93% 30.48 in
(1032 mb)
Calm - 7SM
03:54
Clear
34°F / 1°C 32°F / 0°C 93% 30.48 in
(1032 mb)
Calm - 7SM
03:18
Clear
34°F / 1°C 30°F / -1°C 87% 30.48 in
(1032 mb)
NNE 4.6 mph
(NNE 7 kph)
- 8SM
03:11
Clear
Fog And Mist
32°F / 0°C 30°F / -1°C 93% 30.48 in
(1032 mb)
N 3.5 mph
(N 6 kph)
- 2SM
03:09
Clear
Fog And Mist
34°F / 1°C 30°F / -1°C 87% 30.48 in
(1032 mb)
N 3.5 mph
(N 6 kph)
- 1SM
03:06
Obscured
Fog
34°F / 1°C 32°F / 0°C 93% 30.51 in
(1033 mb)
N 3.5 mph
(N 6 kph)
- 1/2SM
02:59
Obscured
Fog And Mist
34°F / 1°C 30°F / -1°C 87% 30.51 in
(1033 mb)
N 3.5 mph
(N 6 kph)
- 1SM
02:57
Partly Cloudy
Fog And Mist
34°F / 1°C 30°F / -1°C 87% 30.51 in
(1033 mb)
Calm - 2 1/2SM
02:54
Clear
34°F / 1°C 30°F / -1°C 87% 30.51 in
(1033 mb)
Calm - 7SM
01:54
Clear
Fog And Mist
34°F / 1°C 32°F / 0°C 93% 30.51 in
(1033 mb)
Calm - 6SM
00:54
Clear
34°F / 1°C 30°F / -1°C 87% 30.51 in
(1033 mb)
Calm - 10SM
Time Weather Temperature Dewpoint Humidity Pressure Winds Precip Visibility


Weather for websites

WeatherForYou.com, LLC is not responsible for any damages or problems caused by this service. Current weather conditions are obtained from the closest station including government and personal stations which may have varying degrees of accuracy. Weather forecasts are derived from the NOAA NDFD. Like all things, this site belongs to Jesus Christ... He just trusts us to maintain it. If you have any questions or comments email webmaster@weatherforyou.com

Copyright © 2016, WeatherForYou.com LLC. All rights reserved.